Tracking 19489 objects as of 22-Jan-2019
HD Live streaming from Space Station
objects crossing your sky now

FENGYUN 1C DEB

Track FENGYUN 1C DEB now!
10-day predictions


NORAD ID: 30362
Int'l Code: 1999-025ABZ
Perigee: 833.0 km
Apogee: 997.3 km
Inclination: 99.0 °
Period: 103.2 minutes
Semi major axis: 7286 km
RCS: 0.04 m2 (small)
Launch date: May 10, 1999
Source: People's Republic of China (PRC)
Launch site: Taiyaun Space Center, China (TSC)

Note: This is SATELLITE DEBRIS
aabbcc
Your satellite tracking list
Your tracking list is empty




NASA's NSSDC Master Catalog

Two Line Element Set (TLE):
1 30362U 99025ABZ 19021.43406485 +.00000590 +00000-0 +43854-3 0  9997
2 30362 099.0474 298.5652 0112769 095.8220 265.5810 13.95900014609428
Source of the keplerian elements: AFSPC